OBJECT E, 63295

Orbit data source: Space-Track

You're viewing an Uncataloged Satellite

Recently launched and/or uncataloged satellites may have evolving metadata. Metadata may include but not limited to: Owner, Maufacturer, Bus, Motor, and Mission.

OBJECT E, 63295 is a satellite owned by Yunyao yuhang (CN) in SSO that was launched on Mon, 17 Mar 2025 UTC via a GUSHENXING 1 launch vehicle from the Jiuquan Satellite Launch Center, China (JSC). Unknown objects in Earth's orbit typically refer to objects detected orbiting the Earth but have not yet been identified or cataloged. These objects could be anything from previously untracked satellites, spent rocket stages, debris from satellite collisions, or even natural meteoroids temporarily captured by Earth's gravity.

Loading next visibility...
Identifier
63295, 2025-055E
Orbit
SSO
Last TLE update
7 hours ago
Origin
Flag of CNYYAO (CN / PRC)
Manufacturer
Changguang WJ
Mission
Operational Commercial Meteo Radio Occ.
Bus & Motor
YY-1, Unknown motor
Mass
~50 kg wet, ~50 kg dry
Launch date (UTC)
2025-03-17 (4 months ago)
Launch vehicle
GUSHENXING 1
Launch site
Jiuquan Satellite Launch Center, China (JSC)
Object type
Unknown
Shape & HBR
Box + 1 Pan, 5 m
Radar Cross Section
5.339 m², Medium (>0.1 m² and < 1m²)

Expand to show TLE details & history

TLE from 7 hours ago
0 OBJECT E
1 63295U 25055E   25183.92746357  .00006268  00000-0  40055-3 0  9993
2 63295  97.6119 318.5573 0014766 253.3326 106.6282 15.08903390 16202
Epoch: 2025-07-02T22:15Z
TLE epoch observation values (Epoch: 2025-07-02T22:15:32.852Z)
Latitude
Longitude
63.46887°
Altitude
545.556 km
Speed
7.588 km/s
True Right ascension
21h 14m 13s
True Declination
0° 00' 00"
Sunlit
Object was in full shadow at epoch
Visualization orbit readout
Latitude
18.75061°
Longitude
-113.6527°
Altitude
542.294 km
Speed
7.593 km/s
Apparent Right ascension
07h 36m 49s
Apparent Declination
-10° 50' 56"
Sunlit
Object is in daylight
Visualization observer readout
Local Sidereal Time
17:05:47
Azimuth
300.476° NW
Elevation
-45.753°
Doppler factor
1
Orbital elements
Apogee altitude
546.749 km
Perigee altitude
526.329 km
Semi-major axis
6,914.676 km
Eccentricity
0.00148
Inclination
97.6119°
RAAN
318.5573°
Arg. of periapsis
253.3326°
True anomaly
Unknown
Mean anomaly
106.6282°
Eccentric anomaly
Unknown
Mean motion
3.77473 °/min
Orbital period
95.37 mins
BSTAR
0.00040055
Loading maneuver chart data...
Loading SW <> Apogee altitude chart data...
Loading historical data...
Loading historical data...
Loading historical data...
Loading historical data...
Loading historical data...
Loading historical data...
Loading historical data...

OBJECT E Visibility forecast

Observer location: undefined°, undefined°

Span
Click to sort rows by Start time (UTC) header in descending order
Start Az.
Max El. time (UTC)
Max El. Az.
Max El.
End time (UTC)
End Az.
4 mins2025-07-03 07:58:18.184Z98.308° ESE2025-07-03 08:00:18.184Z64.919° ENE15.195°2025-07-03 08:02:18.184Z32.565° NE
5 mins2025-07-03 09:32:18.184Z207.1° SW2025-07-03 09:34:18.184Z257.836° W30.78°2025-07-03 09:37:18.184Z325.103° NNW
4 mins2025-07-03 21:08:18.184Z59.981° ENE2025-07-03 21:10:18.184Z105.059° ESE21.761°2025-07-03 21:12:18.184Z142.295° SSE
5 mins2025-07-03 22:42:18.184Z331.158° NNW2025-07-03 22:44:18.184Z291.343° WNW21.119°2025-07-03 22:47:18.184Z239.276° WSW
|